Temp
3 3 3 4 4 4 5 6 5 6 6 6 5 6 8 8 8 10 7 7 9 8 9 8 10 14 17 19 19 17 18 18 13 14 16 18 18 18 18 19 17 16 15 19
3 3 3 3 4 4 4 4 6 7 6 5 5 7 7 9 9 9 8 9 10 10 9 8 10 12 17 19 19 18 18 16 13 14 16 15 16 18 19 20 18 17 16 18
3 3 3 3 3 4 5 4 4 6 6 5 4 5 6 7 8 8 9 9 10 8 8 8 9 10 16 17 19 18 18 17 16 14 16 16 16 17 18 18 16 18 18 20
3 3 3 2 3 3 5 3 4 2 3 4 4 4 4 5 6 7 8 9 9 8 8 9 9 10 11 16 16 17 17 16 17 18 18 18 17 17 17 16 19 18 20 19
3 3 2 2 2 3 4 3 3 3 3 3 3 5 5 4 5 5 5 5 6 6 6 7 9 8 13 14 15 13 17 11 15 15 18 18 17 17 17 17 19 19 19 19
2 2 2 2 2 2 2 3 2 3 4 4 4 5 5 4 5 6 7 6 5 5 7 8 8 7 8 12 13 13 13 10 9 14 16 13 12 16 17 17 18 18 17 16
2 2 2 2 2 2 2 2 2 3 3 4 4 4 4 4 4 4 5 5 5 8 9 8 9 9 10 11 11 12 10 11 9 8 9 10 15 16 17 18 18 18 18 17
2 2 2 2 2 2 2 2 2 3 2 3 4 3 3 4 5 5 5 4 5 8 8 7 8 9 8 10 11 11 12 9 11 11 12 13 14 14 16 16 15 15 17 16
2 2 2 2 2 2 2 2 2 2 2 3 3 3 3 3 3 3 4 5 4 7 7 7 10 10 10 10 9 11 12 12 11 10 11 12 16 15 16 16 15 15 16 13
2 2 2 2 2 2 2 2 2 1 2 3 3 2 3 2 2 2 3 2 3 8 8 9 9 9 12 10 10 9 10 9 10 11 11 11 12 13 15 12 14 14 15 13
2 2 2 2 1 1 2 2 2 1 1 2 2 2 2 2 2 2 2 3 4 5 8 9 9 8 9 10 10 10 11 11 10 10 11 11 10 10 12 10 9 11 12 11
1 1 1 1 1 1 2 2 2 1 1 1 2 2 1 -0 -0 0 1 2 2 4 4 7 8 8 6 10 9 11 11 11 11 11 10 6 5 6 7 7 9 9 8 7
1 1 1 1 1 1 1 2 1 1 1 1 3 3 2 1 0 -1 -0 2 1 2 2 3 5 8 4 8 7 7 6 4 8 8 5 4 5 6 6 7 6 6 7 7
1 1 1 1 1 1 2 1 -0 1 0 1 1 3 3 2 2 0 -0 -0 0 0 1 3 5 6 3 4 5 3 0 2 5 3 3 4 4 5 5 5 5 5 5 5
1 1 1 1 1 1 1 0 -1 -1 -0 -1 -0 2 3 3 2 3 3 2 1 2 3 3 3 2 2 2 1 -3 -3 -3 0 3 1 3 3 4 4 4 4 4 4 3
0 1 1 2 2 1 2 1 -0 -1 -1 -0 1 3 -0 2 2 3 2 2 1 1 2 2 2 0 1 2 -2 -5 -5 -4 -3 -1 -1 -0 -0 2 2 2 2 2 1 -0
0 1 2 2 2 3 1 -0 -1 -1 -1 0 1 1 -0 1 2 1 0 2 0 1 2 1 1 -1 -2 -3 -5 -7 -7 -6 -4 -2 -2 -2 -2 -2 -1 -1 -2 -2 -3 -3
1 2 2 2 1 0 0 0 -0 -0 -0 -1 -4 -3 -1 1 -2 -1 -1 1 0 -1 1 -0 -1 -3 -4 -6 -7 -8 -7 -6 -4 -4 -3 -3 -4 -4 -4 -4 -4 -4 -4 -5
3 3 2 2 1 -1 -1 -0 0 0 -1 -4 -5 -5 -4 -1 -3 -2 -0 1 2 -0 -1 -1 -1 -4 -7 -8 -9 -9 -8 -7 -5 -4 -4 -5 -5 -5 -5 -5 -6 -6 -6 -6
2 3 2 -2 -0 -1 -0 -0 -3 -4 -5 -5 -5 -5 -6 -4 -4 -3 -1 -1 1 1 -1 -1 -3 -6 -8 -9 -9 -9 -8 -8 -6 -5 -6 -6 -7 -7 -7 -7 -7 -7 -7 -7
-0 -3 -4 -1 -0 -0 -4 -6 -6 -6 -6 -4 -6 -6 -7 -5 -5 -3 -2 -3 -0 1 -1 -0 -2 -6 -9 -9 -10 -9 -9 -9 -9 -9 -8 -8 -8 -8 -9 -9 -9 -8 -7 -7
-3 -4 -3 -2 -4 -7 -7 -10 -6 -5 -5 -6 -9 -8 -8 -7 -5 -3 -3 -3 -1 0 -3 -2 -5 -8 -9 -10 -10 -10 -10 -10 -10 -10 -10 -10 -10 -10 -10 -10 -10 -10 -9 -9
-1 -2 -7 -7 -8 -7 -9 -9 -9 -8 -7 -9 -8 -9 -10 -8 -5 -5 -4 -4 -1 -2 -3 -6 -8 -9 -10 -10 -10 -11 -11 -11 -10 -11 -11 -11 -11 -11 -11 -11 -11 -11 -11 -10
-7 -7 -7 -8 -9 -7 -7 -7 -8 -8 -8 -8 -10 -10 -9 -8 -6 -5 -6 -3 -6 -5 -5 -7 -9 -9 -10 -10 -11 -11 -11 -11 -11 -11 -12 -12 -12 -12 -12 -12 -11 -11 -11 -11
-7 -7 -7 -8 -7 -9 -10 -11 -10 -9 -12 -11 -12 -12 -9 -9 -5 -4 -5 -6 -7 -8 -8 -9 -9 -10 -10 -11 -11 -12 -12 -12 -12 -12 -12 -12 -13 -13 -13 -13 -12 -12 -11 -11
-8 -8 -8 -7 -8 -9 -10 -11 -12 -13 -14 -13 -12 -12 -10 -5 -7 -7 -8 -7 -9 -9 -9 -9 -9 -10 -11 -12 -12 -12 -13 -13 -13 -13 -13 -14 -13 -13 -13 -13 -13 -12 -12 -12
-8 -9 -8 -9 -10 -10 -12 -13 -14 -12 -15 -14 -14 -13 -11 -13 -10 -9 -9 -10 -10 -11 -10 -10 -11 -11 -11 -12 -12 -12 -13 -13 -13 -14 -14 -14 -13 -13 -13 -13 -13 -12 -12 -12
Height
808 801 794 786 778 770 762 759 759 754 753 753 756 751 742 736 729 724 731 729 721 720 718 715 696 677 669 667 676 688 687 696 726 723 716 710 715 721 723 733 744 745 755 741
809 803 796 788 780 773 767 764 759 756 756 759 758 747 741 733 727 720 724 721 716 713 718 717 703 684 665 662 667 677 681 700 725 730 724 722 718 711 709 713 722 736 752 741
811 805 798 791 783 775 769 767 767 757 759 762 763 756 742 738 728 725 718 712 707 714 710 713 702 692 670 664 662 667 673 685 693 709 698 707 718 714 714 719 737 729 725 721
814 807 800 794 787 776 771 772 771 774 771 765 765 762 754 747 741 730 725 718 716 718 716 711 704 694 688 665 668 668 674 685 684 685 688 695 702 709 711 720 707 726 712 716
815 808 803 798 791 782 776 777 776 774 771 768 765 754 748 751 745 748 739 737 727 722 724 714 702 705 678 670 674 684 672 702 688 695 685 689 699 701 705 708 701 705 708 712
817 810 805 799 794 789 785 782 779 776 766 763 761 754 751 751 745 734 728 729 725 717 706 706 702 706 699 677 676 681 687 704 717 698 690 702 721 694 695 698 698 701 713 710
817 811 805 800 795 793 790 786 779 773 767 761 759 757 752 747 740 732 721 719 722 707 706 705 698 694 684 673 677 679 695 696 713 729 723 735 685 680 682 688 687 691 692 697
815 809 803 798 794 790 786 784 780 774 770 762 755 754 748 739 729 722 718 711 705 700 702 702 687 683 687 683 680 682 683 702 705 706 702 693 689 686 682 689 692 689 693 696
813 806 801 796 791 788 784 780 778 777 771 760 757 752 746 740 734 724 716 705 695 691 695 690 675 670 672 679 689 686 684 688 703 711 706 702 675 673 671 677 690 682 684 698
812 806 799 793 788 785 782 777 776 775 771 759 757 756 749 746 742 735 721 716 702 689 686 676 674 680 662 676 681 689 692 697 694 696 698 699 682 676 673 702 689 678 675 686
810 804 797 791 786 782 780 775 773 774 769 760 756 755 752 747 744 740 728 716 707 696 685 678 674 680 671 668 671 675 677 685 688 694 692 695 681 684 686 691 691 683 679 687
806 799 792 788 783 780 778 774 772 771 769 759 755 752 751 751 747 744 736 730 725 713 707 686 677 672 680 662 679 669 675 667 677 676 683 696 699 697 694 693 691 690 691 698
803 795 787 783 780 777 777 774 772 768 764 755 752 749 750 747 745 743 743 729 727 721 723 714 695 676 691 676 684 685 691 698 683 685 705 707 705 701 697 696 696 697 699 704
800 791 784 780 778 776 775 775 774 772 770 764 752 747 747 746 742 739 737 733 727 722 718 712 701 690 698 693 691 701 726 711 700 711 711 710 709 706 704 704 703 706 708 713
798 790 782 777 776 775 775 775 776 776 779 773 758 747 743 743 740 735 732 730 725 719 714 713 711 711 711 702 709 741 745 743 727 714 724 717 715 711 710 710 712 716 717 725
796 788 782 778 775 774 775 775 777 775 776 773 759 746 744 741 735 731 728 726 724 722 717 715 716 722 719 708 736 758 754 748 743 733 729 725 723 718 718 719 722 724 729 737
793 787 782 780 777 774 776 783 781 775 772 770 762 758 750 745 737 731 729 726 726 725 721 723 725 730 728 737 758 765 759 751 741 734 734 733 730 731 731 729 731 734 741 749
792 786 783 781 780 778 778 779 777 773 772 771 790 785 768 756 755 746 733 731 727 729 728 733 734 741 750 765 775 770 764 751 742 739 737 737 739 737 739 739 741 745 752 761
790 785 782 782 782 783 782 778 778 777 779 790 802 807 794 772 770 756 742 735 730 733 739 739 740 761 780 788 783 775 765 759 752 747 746 745 744 746 749 751 753 756 766 770
791 785 785 791 790 786 783 780 783 786 794 799 812 808 811 797 784 767 757 744 738 735 744 741 754 779 789 789 784 778 771 766 759 755 756 755 755 758 759 762 767 770 775 780
799 799 800 795 790 788 790 805 809 811 817 814 817 816 815 800 794 781 767 763 746 737 747 743 758 786 797 794 789 784 779 775 770 767 766 765 765 767 767 772 777 779 782 786
811 810 806 802 800 808 820 838 828 826 830 826 830 824 819 807 796 784 772 768 752 746 758 755 782 804 805 801 797 792 787 784 778 777 777 778 775 776 775 778 783 786 789 794
809 809 813 819 828 838 853 861 855 850 838 836 833 831 825 810 799 791 783 775 760 762 769 793 811 811 810 808 804 801 797 794 789 788 789 789 784 783 784 787 792 794 797 801
818 827 838 841 853 847 846 848 849 845 842 839 839 835 828 816 804 793 794 776 781 780 788 809 816 816 814 812 809 805 804 800 797 796 796 794 793 793 796 798 801 802 805 809
826 829 844 848 843 844 846 848 847 844 845 844 842 839 831 821 804 795 796 795 805 817 821 822 821 820 818 816 814 812 809 807 805 805 804 805 805 806 807 808 810 810 811 813
827 833 841 840 845 845 846 846 848 846 847 844 842 842 830 809 816 814 822 815 829 831 830 827 824 824 823 821 820 817 815 814 813 813 813 814 813 813 815 815 815 815 815 816
831 836 831 836 841 843 845 847 848 846 848 853 850 853 840 840 830 831 831 835 837 837 833 832 830 829 827 826 824 823 822 821 820 820 820 820 820 819 819 819 819 819 819 820
Wind_Speed
35 36 37 37 38 38 20 6 3 6 8 2 1 3 11 9 10 11 3 6 9 6 3 6 6 18 21 25 21 21 14 2 6 9 3 2 8 10 10 9 7 3 5 8
35 35 35 36 37 37 15 4 3 3 5 4 4 9 12 12 12 11 3 7 8 5 3 3 8 13 15 23 23 21 12 5 5 5 1 2 11 14 17 6 4 10 7 4
35 35 35 35 36 37 14 2 3 1 2 1 5 10 8 11 10 13 10 12 10 7 5 5 7 8 7 7 23 21 14 5 7 11 9 7 5 11 7 11 3 4 8 5
36 35 33 34 34 37 10 3 2 2 4 5 11 10 5 9 8 7 9 5 8 10 7 7 11 17 17 6 3 14 9 15 9 10 8 12 13 14 16 11 21 11 12 11
37 37 35 31 31 33 8 3 3 0 5 5 6 11 4 12 6 3 8 11 18 18 14 11 14 8 8 6 9 1 5 2 8 8 10 13 16 20 17 18 20 19 8 6
37 36 34 31 28 25 6 7 7 2 4 2 5 4 9 19 17 7 6 19 19 20 18 15 13 11 18 11 9 13 11 4 3 13 2 6 3 21 20 17 17 16 13 7
37 37 35 31 26 21 15 11 8 2 4 4 6 15 14 17 20 21 21 17 17 7 6 12 11 15 9 6 5 5 5 7 3 3 4 4 7 11 12 21 21 19 8 9
37 37 35 31 26 22 19 16 5 2 4 6 10 15 12 17 16 15 18 14 14 13 8 4 4 3 2 2 5 7 6 4 1 4 7 2 2 5 15 12 13 9 14 6
37 37 36 32 27 22 19 19 8 2 4 3 10 10 12 10 9 8 6 15 13 9 4 4 5 3 4 4 4 2 4 9 7 4 6 10 4 5 5 5 13 10 10 13
37 37 37 32 26 20 16 11 8 3 3 4 6 5 5 5 5 5 8 10 8 5 3 3 2 3 7 6 7 6 5 4 12 9 4 5 5 3 5 9 7 2 12 15
38 39 37 32 25 19 13 14 9 2 2 9 3 2 5 3 2 4 7 7 2 3 2 3 3 3 5 4 6 7 8 7 5 4 5 9 6 4 8 2 4 4 3 7
41 39 37 31 23 16 12 5 6 8 4 5 10 16 11 6 4 4 3 4 5 3 4 3 3 1 2 4 4 1 4 4 6 6 4 4 5 5 2 1 2 4 8 13
43 40 35 28 21 14 8 7 9 5 3 4 2 3 5 7 8 7 2 2 4 3 1 3 3 3 3 2 1 4 2 5 3 5 4 4 6 5 5 5 6 8 12 15
44 39 32 25 19 13 7 4 8 3 4 3 3 1 5 8 13 10 15 9 8 4 2 3 2 3 4 2 2 4 4 7 4 3 3 2 6 5 6 9 10 11 13 14
45 37 27 20 17 12 1 9 14 17 3 3 5 17 2 9 23 10 10 10 5 2 2 1 2 3 5 1 3 5 6 5 3 3 8 3 3 4 7 11 12 12 17 18
45 33 22 16 17 6 1 2 1 22 9 2 3 4 5 21 27 14 6 3 2 2 2 1 2 3 5 2 3 8 12 9 6 3 5 7 6 8 8 14 14 16 18 18
41 29 16 13 14 14 7 3 12 20 4 2 4 5 5 18 15 4 3 6 1 1 2 3 2 4 5 3 3 15 15 13 9 3 1 4 8 6 11 16 18 27 26 24
39 25 10 8 7 3 3 13 16 16 3 2 3 5 7 13 4 4 2 3 2 3 2 2 3 3 4 4 11 13 14 14 7 5 4 7 9 12 12 17 19 19 17 15
33 18 6 5 7 8 11 14 9 12 8 3 3 6 5 8 3 3 3 2 2 1 2 2 2 4 6 9 12 13 15 9 5 7 9 11 14 14 14 16 17 19 15 15
25 12 6 3 8 18 7 5 4 5 4 4 2 3 3 6 3 3 6 3 2 2 2 1 3 3 4 11 10 10 11 10 6 8 10 12 13 15 16 17 14 16 14 20
12 10 3 11 16 7 5 4 4 4 4 4 3 4 8 4 3 4 3 3 2 2 3 3 3 3 6 11 11 10 9 10 11 14 13 12 11 13 15 16 19 21 22 20
11 8 6 8 7 4 7 4 5 5 4 6 3 7 6 4 3 3 3 3 3 3 5 3 3 3 6 9 10 11 12 14 14 21 15 17 18 18 19 19 19 21 22 21
4 3 5 4 4 10 5 6 5 4 5 3 8 10 3 4 3 3 3 3 3 6 3 3 3 5 6 7 8 10 16 17 18 19 19 19 22 24 22 21 20 21 22 20
3 4 6 4 4 1 2 1 2 3 3 8 8 4 3 3 3 2 3 3 3 5 4 4 3 6 6 6 7 8 10 13 14 15 17 19 20 21 22 21 19 19 17 15
3 4 2 1 2 1 1 1 1 2 2 4 4 3 3 3 4 1 4 7 4 5 3 4 4 5 6 7 7 7 8 10 12 14 15 16 16 16 17 18 17 17 16 15
3 3 3 1 1 2 2 1 1 2 3 2 1 3 3 2 4 5 5 4 4 3 3 5 4 5 5 5 5 8 10 11 12 14 13 13 14 13 13 15 16 15 14 13
3 1 1 2 2 3 2 2 0 6 2 2 2 4 2 4 4 2 3 2 3 4 4 3 4 4 4 5 6 7 8 10 11 11 11 10 10 11 14 13 12 13 13 11
Wind_Direction
357 357 356 356 0 359 356 320 349 12 354 328 19 322 312 309 298 313 283 296 254 270 288 291 232 211 208 182 186 210 221 141 163 192 47 214 196 190 195 193 207 187 166 236
358 356 356 354 354 359 348 331 324 19 11 39 341 315 309 298 298 303 238 223 219 271 203 281 283 222 231 186 188 197 193 216 113 151 184 189 207 212 206 232 137 200 189 239
357 355 355 355 351 352 358 9 353 357 68 62 332 324 314 331 325 303 288 292 280 272 308 220 292 308 235 253 198 198 183 190 185 193 194 121 190 194 211 207 230 176 210 171
359 357 354 355 353 348 353 32 25 81 324 321 318 306 274 301 337 344 325 312 322 283 264 261 258 253 262 170 305 202 184 208 215 199 194 175 188 193 198 194 218 201 216 207
356 356 355 354 356 352 8 16 341 353 283 293 284 295 358 311 308 276 281 288 287 289 271 276 278 333 265 182 207 305 220 257 217 220 202 195 192 201 200 207 221 218 218 224
354 354 355 353 355 2 338 332 301 243 272 257 301 297 331 306 304 292 287 301 287 283 289 267 262 264 268 244 174 195 210 144 105 227 193 98 8 192 199 208 223 208 214 197
351 351 352 352 349 352 343 322 299 280 286 306 307 308 313 306 298 292 293 289 266 250 261 311 260 230 267 87 71 89 120 166 77 196 91 157 235 177 198 205 215 216 211 190
349 348 349 348 345 343 340 331 309 310 286 304 303 329 311 304 298 297 296 298 280 240 271 246 234 185 109 182 155 160 164 103 94 158 213 287 72 183 189 184 237 204 219 190
347 346 346 345 343 339 334 325 331 331 297 246 341 314 299 311 321 312 291 307 308 164 220 209 214 186 136 147 125 4 162 187 190 145 186 223 232 179 163 96 239 195 175 161
346 344 344 342 340 336 330 298 318 294 270 277 330 307 312 304 298 280 305 340 328 221 224 216 182 215 141 163 152 155 167 172 198 200 186 265 239 228 122 142 235 267 185 169
346 344 342 340 338 335 332 296 292 276 262 292 270 285 295 294 285 301 311 317 24 291 247 202 222 229 213 123 155 170 167 168 184 184 192 243 162 43 161 207 329 335 94 136
345 344 343 341 339 337 332 295 324 302 245 260 293 288 272 261 268 297 306 283 299 336 321 337 311 322 359 164 175 307 163 185 171 184 187 23 23 44 35 285 112 20 105 114
345 346 346 345 342 337 325 306 344 329 277 286 256 206 253 284 302 262 284 277 332 274 322 303 298 258 2 167 163 101 53 4 111 137 11 22 11 24 25 53 89 88 112 121
346 347 348 350 353 351 343 81 35 32 295 288 277 222 280 306 325 274 235 268 276 254 247 255 300 329 338 20 69 64 336 327 3 63 32 31 24 29 75 87 91 94 102 112
347 347 351 357 355 352 60 130 67 37 18 297 297 307 275 322 339 308 246 273 292 296 302 307 344 16 331 352 97 45 356 0 359 53 349 342 39 44 89 99 104 109 112 109
348 348 353 5 6 16 235 159 176 351 344 267 297 310 356 348 343 320 321 318 315 294 332 351 50 6 316 45 70 14 351 335 316 304 335 51 40 50 93 107 107 100 100 102
347 347 353 3 20 52 58 96 328 334 323 272 299 334 352 354 325 325 349 309 305 328 8 27 22 14 11 38 39 336 332 321 324 335 349 13 12 86 88 97 96 94 92 96
346 351 352 7 17 45 29 352 2 10 324 15 39 315 323 15 319 320 346 331 301 9 41 45 17 28 35 51 337 333 327 326 4 26 43 106 104 86 83 93 100 94 92 95
347 355 13 25 30 13 314 341 27 37 42 81 64 352 321 356 298 291 321 299 324 326 31 39 46 35 45 336 330 334 334 333 360 57 75 86 86 86 87 91 86 88 88 85
351 8 25 3 346 328 356 34 24 20 13 25 55 344 300 340 324 288 347 316 321 340 45 332 59 82 63 360 344 338 343 3 1 75 71 82 81 83 79 78 84 88 89 92
6 13 353 314 349 0 30 33 42 342 28 10 346 11 329 285 307 303 297 315 305 324 3 1 55 42 359 352 359 2 8 29 56 63 57 64 85 94 92 84 84 86 85 81
312 311 314 335 18 19 65 10 354 22 355 346 355 333 305 288 281 280 314 293 296 6 321 32 60 33 360 359 4 10 24 41 57 58 60 64 71 77 83 83 81 78 80 80
12 21 41 43 331 36 60 354 323 336 343 330 334 328 288 305 255 280 312 307 352 308 45 62 34 2 5 8 9 20 29 41 56 59 60 64 69 67 72 77 75 80 76 79
66 46 18 80 -0 104 173 204 252 292 324 321 324 292 302 310 299 330 312 325 38 12 42 41 13 14 8 11 19 30 27 34 46 52 55 56 58 60 61 65 74 78 77 82
79 66 99 85 181 161 129 152 328 316 334 326 310 292 238 279 297 5 345 356 61 31 24 358 3 17 20 18 22 28 31 33 41 44 52 56 59 63 63 69 80 85 85 83
76 76 87 90 96 209 165 162 279 49 316 270 219 277 308 349 322 21 16 339 43 3 336 348 7 27 28 31 30 37 40 44 47 49 54 62 62 64 74 75 71 69 71 74
91 198 12 99 86 158 138 129 91 342 355 20 344 4 272 301 357 55 15 25 352 328 337 14 14 20 16 33 51 53 61 64 59 65 64 65 69 81 72 57 57 60 56 65